Location: Maccacari
(45.1333°N, 11.1333°E)
Time: 14:37:53
(UTC+00:00)

A-11 Canister half - All Passes

Search period start: 25 January 2021 00:00
Search period end: 04 February 2021 00:00
Orbit: 1517 x 1683 km, 47.2° (Epoch: 24 January)

Date Brightness Start Highest point End Pass type
(mag) Time Alt. Az. Time Alt. Az. Time Alt. Az.
25 Jan - 01:13:48 10° WNW 01:22:49 59° SSW 01:31:54 10° SE visible
25 Jan - 03:20:03 10° W 03:26:13 20° SW 03:32:28 10° S visible
25 Jan - 16:37:45 10° SSE 16:42:15 14° SE 16:46:40 10° E visible
25 Jan - 18:36:25 10° SSW 18:45:24 49° SE 18:54:11 10° ENE visible
25 Jan - 20:40:25 10° WSW 20:49:53 88° NNW 20:59:12 10° ENE visible
25 Jan - 22:45:48 10° W 22:55:10 82° N 23:04:28 10° E visible
26 Jan - 00:50:53 10° WNW 00:59:56 62° SSW 01:09:04 10° SE night (unlit)
26 Jan - 02:56:57 10° W 03:03:25 22° SW 03:09:59 10° S visible
26 Jan - 16:15:39 10° SSE 16:19:27 13° ESE 16:23:13 10° E daylight
26 Jan - 18:13:36 10° SSW 18:22:33 47° SE 18:31:16 10° ENE visible
26 Jan - 20:17:29 10° WSW 20:26:59 90° NNW 20:36:17 10° ENE visible
26 Jan - 22:22:51 10° W 22:32:14 81° N 22:41:32 10° E visible
27 Jan - 00:27:58 10° WNW 00:37:04 65° SSW 00:46:13 10° SE night (unlit)
27 Jan - 02:33:52 10° W 02:40:38 23° SW 02:47:28 10° S visible
27 Jan - 15:53:45 10° SE 15:56:40 12° ESE 15:59:34 10° ESE daylight
27 Jan - 17:50:50 10° SSW 17:59:42 44° SE 18:08:20 10° ENE visible
27 Jan - 19:54:33 10° WSW 20:04:03 88° SSE 20:13:23 10° ENE visible
27 Jan - 21:59:55 10° W 22:09:18 80° N 22:18:37 10° E visible
28 Jan - 00:05:03 10° WNW 00:14:12 67° SSW 00:23:23 10° SE night (unlit)
28 Jan - 02:10:49 10° W 02:17:50 25° SW 02:24:55 10° S night (unlit)
28 Jan - 15:32:22 10° SE 15:33:54 10° ESE 15:35:25 10° ESE daylight
28 Jan - 17:28:04 10° SSW 17:36:51 42° SE 17:45:24 10° ENE visible
28 Jan - 19:31:37 10° WSW 19:41:09 87° SSE 19:50:29 10° ENE visible
28 Jan - 21:36:58 10° W 21:46:22 79° N 21:55:41 10° E visible
28 Jan - 23:42:07 10° WNW 23:51:19 70° SSW 00:00:31 10° SE night (unlit)
29 Jan - 01:47:46 10° W 01:55:02 27° SW 02:02:21 10° S night (unlit)
29 Jan - 17:05:19 10° SSW 17:14:00 40° SE 17:22:28 10° ENE visible
29 Jan - 19:08:41 10° WSW 19:18:15 85° SSE 19:27:34 10° ENE visible
29 Jan - 21:14:00 10° W 21:23:27 79° N 21:32:45 10° E visible
29 Jan - 23:19:12 10° WNW 23:28:27 72° SSW 23:37:39 10° SE night (unlit)
30 Jan - 01:24:45 10° WNW 01:32:13 29° SW 01:39:44 10° S night (unlit)
30 Jan - 16:42:34 10° SSW 16:51:10 38° SE 16:59:31 10° ENE visible
30 Jan - 18:45:46 10° WSW 18:55:20 82° SSE 19:04:40 10° ENE visible
30 Jan - 20:51:04 10° W 21:00:31 79° N 21:09:49 10° E visible
30 Jan - 22:56:16 10° WNW 23:05:34 75° SSW 23:14:47 10° ESE visible
31 Jan - 01:01:45 10° WNW 01:09:25 30° SW 01:17:07 10° S night (unlit)
31 Jan - 16:19:51 10° SSW 16:28:19 36° SE 16:36:34 10° ENE daylight
31 Jan - 18:22:50 10° WSW 18:32:26 80° SSE 18:41:46 10° ENE visible
31 Jan - 20:28:06 10° W 20:37:36 79° N 20:46:54 10° E visible
31 Jan - 22:33:21 10° WNW 22:42:41 77° SSW 22:51:55 10° ESE visible
01 Feb - 00:38:45 10° WNW 00:46:36 32° SW 00:54:28 10° SSE night (unlit)
01 Feb - 15:57:09 10° SSW 16:05:29 34° SE 16:13:35 10° ENE daylight
01 Feb - 17:59:55 10° WSW 18:09:31 78° SSE 18:18:51 10° ENE visible
01 Feb - 20:05:08 10° W 20:14:39 79° N 20:23:58 10° E visible
01 Feb - 22:10:26 10° WNW 22:19:47 80° SSW 22:29:02 10° ESE visible
02 Feb - 00:15:46 10° WNW 00:23:47 34° SW 00:31:49 10° SSE night (unlit)
02 Feb - 15:34:27 10° SSW 15:42:39 32° SE 15:50:36 10° ENE daylight
02 Feb - 17:37:00 10° WSW 17:46:38 76° SSE 17:55:58 10° ENE visible
02 Feb - 19:42:10 10° W 19:51:43 79° N 20:01:03 10° E visible
02 Feb - 21:47:30 10° WNW 21:56:54 82° SSW 22:06:08 10° ESE visible
02 Feb - 23:52:47 10° WNW 00:00:58 36° SW 00:09:07 10° SSE night (unlit)
03 Feb - 15:11:48 10° S 15:19:49 30° SE 15:27:37 10° ENE daylight
03 Feb - 17:14:05 10° SW 17:23:44 73° SSE 17:33:03 10° ENE visible
03 Feb - 19:19:12 10° W 19:28:47 79° N 19:38:07 10° E visible
03 Feb - 21:24:34 10° WNW 21:34:00 84° SSW 21:43:16 10° ESE visible
03 Feb - 23:29:49 10° WNW 23:38:08 39° SW 23:46:26 10° SSE visible
